#timestamp,LO_Frequency,Hit,StdDev 
1668394815.7,286046999.0,N
1668394835.6,286047000.6,N
1668394855.4,286046998.2,N
1668394875.2,286046998.4,N
1668394895.1,286046999.4,N
1668394896.0,286046999.4,N
1668394915.8,286047000.8,N
1668394935.6,286046998.7,N
1668394955.5,286046998.6,N
1668394975.3,286046998.7,N
1668394995.2,286046998.6,N
1668395015.9,286047001.1,N
1668395035.7,286047000.6,N
1668395055.6,286047000.7,N
1668395075.4,286047001.1,N
1668395095.2,286046998.2,N
1668395115.1,286046999.4,N
1668395116.0,286046999.4,N
1668395135.8,286046999.0,N
1668395155.7,286046998.1,N
1668395175.5,286047000.9,N
1668395195.3,286047000.1,N
1668395215.2,286046999.9,N
1668395235.0,286047000.1,N
1668395235.9,286047000.1,N
1668395255.8,286047000.4,N
1668395275.6,286047000.7,N
1668395295.4,286047002.3,N
1668395315.3,286047002.4,N
1668395335.1,286047002.3,N
1668395355.8,286047001.0,N
1668395375.7,286047002.7,N
1668395395.5,286047002.0,N
1668395415.4,286047001.3,N
1668395435.2,286047001.3,N
1668395455.0,286047001.3,N
1668395455.9,286047001.3,N
1668395475.8,286047002.2,N
1668395495.6,286047002.4,N
1668395515.4,286047002.5,N
1668395535.3,286047002.1,N
1668395555.1,286046999.7,N
1668395575.9,286047001.3,N
1668395595.7,286047004.0,Y
1668395615.5,286047002.8,P
1668395635.4,286047002.1,N
1668395655.2,286047001.4,N
1668395675.0,286047002.1,N
1668395676.0,286047002.1,Y
1668395695.8,286047000.8,P
1668395715.6,286047000.8,N
1668395735.5,286047000.0,N
1668395755.3,286047000.6,N
1668395775.1,286046999.9,N
1668395795.9,286047002.3,Y
1668395815.7,286047000.0,P
1668395835.6,286047000.9,N
1668395855.4,286047001.0,N
1668395875.2,286047000.7,N
1668395895.1,286046998.3,Y
1668395896.0,286046998.3,P
1668395915.8,286046998.8,N
1668395935.6,286047000.4,N
1668395955.5,286047000.4,N
1668395975.3,286047000.6,N
1668395995.2,286047001.1,N
1668396015.9,286047000.6,N
1668396035.7,286046998.2,N
1668396055.6,286046999.1,N
1668396075.4,286046998.7,N
1668396095.2,286046999.4,N
1668396115.1,286046999.6,N
1668396116.0,286046999.6,N
1668396135.8,286046998.9,N
1668396155.7,286047000.9,N
1668396175.5,286046998.9,N
1668396195.3,286047000.5,N
1668396215.2,286047000.6,N
1668396235.0,286047000.2,N
1668396235.9,286047000.2,N
1668396255.8,286046999.9,N
1668396275.6,286047000.7,N
1668396295.4,286046999.4,N
1668396315.3,286047001.0,N
1668396335.1,286047000.3,N
1668396355.8,286047000.4,N
1668396375.7,286047000.2,N
1668396395.5,286047002.6,Y
1668396415.4,286047002.2,P
1668396435.2,286047002.1,N
1668396455.0,286047000.5,N
1668396455.9,286047000.5,N
1668396475.8,286046999.0,N
1668396495.6,286046998.3,N
1668396515.5,286046998.3,N
1668396535.3,286046999.0,N
1668396555.1,286046999.1,N
1668396575.9,286046998.5,N
1668396595.7,286047000.8,N
1668396615.5,286046999.7,N
1668396635.4,286047001.8,N
1668396655.2,286047001.5,N
1668396675.1,286047001.9,N
1668396676.0,286047001.9,N
1668396695.8,286047002.0,N
1668396715.6,286047001.9,N
1668396735.5,286047004.4,Y
1668396755.3,286047001.4,P
1668396775.1,286047001.4,N
1668396795.9,286047004.4,P
1668396815.7,286047004.0,N
1668396835.6,286047004.0,N
1668396855.4,286047003.5,N
1668396875.2,286047003.8,N
1668396895.1,286047003.0,N
1668396896.0,286047003.0,N
1668396915.8,286047001.4,N
1668396935.7,286047003.7,N
1668396955.5,286047002.9,N
1668396975.3,286047003.4,N
1668396995.2,286047006.0,Y
1668397015.0,286046998.7,P
1668397015.9,286046998.7,N
1668397035.7,286046997.0,N
1668397055.6,286046999.0,N
1668397075.4,286046997.2,N
1668397095.3,286046998.4,N
1668397115.1,286047001.0,N
1668397116.0,286047001.0,N
1668397135.8,286046998.5,N
1668397155.7,286046997.5,N
1668397175.5,286046999.4,N
1668397195.4,286046998.2,N
1668397215.2,286047000.1,N
1668397235.0,286047002.8,N
1668397235.9,286047002.8,N
1668397255.8,286047002.6,N
1668397275.6,286047001.5,N
1668397295.4,286047002.1,N
1668397315.3,286047000.3,N
1668397335.1,286047000.8,N
1668397355.9,286047001.1,N
1668397375.7,286046996.5,N
1668397395.5,286046997.0,N
1668397415.4,286046996.8,N
1668397435.2,286046999.0,N
1668397455.0,286046998.1,N
1668397455.9,286046998.1,N
1668397475.8,286046996.5,N
1668397495.6,286046996.9,N
1668397515.5,286046996.6,N
1668397535.3,286046998.1,N
1668397555.1,286047000.9,N
1668397575.9,286047000.1,N
1668397595.2,286047002.3,N
1668397615.9,286046998.4,N
1668397635.7,286046997.2,N
1668397655.6,286046995.5,N
1668397675.4,286046997.0,N
1668397695.3,286046997.7,N
1668397715.1,286046999.1,N
1668397735.8,286046999.0,N
1668397755.7,286047000.9,N
1668397775.5,286047000.1,N
1668397795.4,286047004.3,N
1668397815.2,286047001.9,N
1668397835.0,286047002.6,N
1668397835.9,286047002.6,N
1668397855.8,286046998.5,N
1668397875.6,286046998.4,N
1668397895.4,286046999.4,N
1668397915.3,286046998.3,N
1668397935.1,286047000.4,N
1668397955.9,286046999.8,N
1668397975.7,286047004.3,N
1668397995.5,286047004.2,N
1668398015.4,286047003.7,N
1668398035.2,286047003.5,N
1668398055.1,286047003.4,N
1668398056.0,286047003.4,N
1668398075.8,286047004.4,N
1668398095.6,286047002.4,N
1668398115.5,286047002.4,N
1668398135.3,286047000.4,N
1668398155.1,286047002.8,N
1668398175.9,286047001.9,N
1668398195.7,286047000.3,N
1668398215.6,286047000.5,N
1668398235.4,286047000.4,N
1668398255.2,286047000.4,N
1668398275.1,286046999.3,N
1668398276.0,286046999.3,N
1668398295.8,286047000.8,N
1668398315.7,286047002.4,N
1668398335.5,286047001.6,N
1668398355.3,286047003.9,N
1668398375.2,286047003.1,N
1668398395.0,286047003.3,N
1668398395.9,286047003.3,N
